Location: B�rgermoos
(47.6500°N, 9.0667°E)
Time: 00:29:18
(UTC+00:00)

Tiros 1 - Pass Details

Date: 07 August 2021
Orbit: 630 x 663 km, 48.4° (Epoch: 16 September)

Event Time Altitude Azimuth Distance (km) Brightness Sun altitude
Rises 17:14:32 0° 264° (W) 2,989 12.2 14.4°
Reaches altitude 10° 17:16:53 10° 265° (W) 2,075 11.8 14.0°
Maximum altitude 17:21:42 84° 353° (N) 666 7.5 13.2°
Drops below altitude 10° 17:26:28 10° 83° (E) 2,059 9.2 12.4°
Sets 17:28:48 0° 84° (E) 2,965 9.9 12.0°
